Find OneWeb SL0006

NORAD ID: 44061 Int'l Des: 2019-010 Owner: ONEWEB Country: UK Constellation: oneweb operational
LEOCIRCULARPOLARONEWEB_TYPE

Live Position

Loading 3D Globe...

About OneWeb SL0006

Description loading...

Upcoming Passes

Passes for default location (London). Set your location on the main map for personalized predictions.

Altitude History

Loading altitude history...

Two-Line Element Set

1 44061U 19010E 26133.35663505 .00000111 00000-0 26070-3 0 9995
2 44061 87.8986 266.1251 0001738 94.4555 265.6774 13.15549400346841
Epoch: May 13, 2026 • Age: 11 hours

Current Status

Altitude 1212.8 km
Velocity 7.25 km/s
Sub-Earth Point 70.28°N, 102.28°E
Launch Date Feb 27, 2019
Age 7.2 years
Type internet

Technical Details

Classification Payload
Mass 148.00 kg
Dry Mass 140.00 kg
Total Mass 148.00 kg
Length 1.30 m
Diameter 1.00 m
Span 5.00 m
Shape Trapezoid+2 pan
Manufacturer ADST
Bus Type ARROW
Phase Status In Orbit
Owner/State ONEWEB/UK

Most Searched